Stündliche Wetter Aberaeron

Heute, 25 Juni, Freitag

Zeit Temperatur Niederschläge Wind Luftdruck Luftfeuchtigkeit
00:00 +14°C° 1.2 mm 6 m/S 756 mmHg 98%
01:00 +13°C° 0.1 mm 6 m/S 756 mmHg 97%
02:00 +11°C° 0.1 mm 7 m/S 756 mmHg 96%
03:00 +10°C° 0.1 mm 7 m/S 756 mmHg 95%
04:00 +10°C° 0 mm 8 m/S 756 mmHg 94%
05:00 +9°C° 0 mm 8 m/S 756 mmHg 92%
06:00 +9°C° 0 mm 8 m/S 756 mmHg 91%
07:00 +9°C° 0.1 mm 8 m/S 755 mmHg 92%
08:00 +9°C° 0.1 mm 7 m/S 755 mmHg 93%
09:00 +10°C° 0.1 mm 7 m/S 755 mmHg 94%
10:00 +10°C° 0.1 mm 7 m/S 755 mmHg 93%
11:00 +11°C° 0.1 mm 8 m/S 755 mmHg 91%
12:00 +12°C° 0.1 mm 8 m/S 755 mmHg 90%
13:00 +11°C° 0.1 mm 8 m/S 755 mmHg 90%
14:00 +11°C° 0.1 mm 8 m/S 755 mmHg 89%
15:00 +11°C° 0.1 mm 8 m/S 755 mmHg 89%
16:00 +11°C° 0.2 mm 7 m/S 755 mmHg 90%
17:00 +10°C° 0.2 mm 6 m/S 755 mmHg 91%
18:00 +9°C° 0.2 mm 5 m/S 755 mmHg 93%
19:00 +9°C° 0 mm 5 m/S 755 mmHg 93%
20:00 +9°C° 0 mm 5 m/S 755 mmHg 93%
21:00 +10°C° 0 mm 4 m/S 755 mmHg 94%
22:00 +10°C° 0.2 mm 4 m/S 755 mmHg 94%
23:00 +10°C° 0.2 mm 4 m/S 755 mmHg 95%

Morgen, 26 Juni, Samstag

Zeit Temperatur Niederschläge Wind Luftdruck Luftfeuchtigkeit
00:00 +10°C° 0.2 mm 3 m/S 755 mmHg 95%
01:00 +10°C° 0.2 mm 3 m/S 755 mmHg 95%
02:00 +10°C° 0.2 mm 3 m/S 755 mmHg 95%
03:00 +10°C° 0.2 mm 3 m/S 755 mmHg 95%
04:00 +10°C° 0 mm 3 m/S 755 mmHg 95%
05:00 +10°C° 0 mm 3 m/S 755 mmHg 95%
06:00 +11°C° 0 mm 3 m/S 755 mmHg 95%
07:00 +12°C° 0 mm 4 m/S 755 mmHg 91%
08:00 +13°C° 0 mm 4 m/S 755 mmHg 88%
09:00 +13°C° 0 mm 4 m/S 755 mmHg 84%
10:00 +14°C° 0.1 mm 4 m/S 755 mmHg 79%
11:00 +15°C° 0.1 mm 4 m/S 755 mmHg 75%
12:00 +17°C° 0.1 mm 4 m/S 755 mmHg 70%
13:00 +17°C° 0 mm 4 m/S 755 mmHg 70%
14:00 +18°C° 0 mm 4 m/S 755 mmHg 70%
15:00 +18°C° 0 mm 4 m/S 755 mmHg 70%
16:00 +18°C° 0.1 mm 4 m/S 755 mmHg 73%
17:00 +18°C° 0.1 mm 4 m/S 755 mmHg 77%
18:00 +17°C° 0.1 mm 4 m/S 755 mmHg 80%
19:00 +15°C° 0 mm 4 m/S 755 mmHg 82%
20:00 +14°C° 0 mm 4 m/S 755 mmHg 85%
21:00 +12°C° 0 mm 4 m/S 756 mmHg 88%
22:00 +12°C° 0 mm 4 m/S 756 mmHg 88%
23:00 +12°C° 0 mm 4 m/S 756 mmHg 89%

übermorgen, 27 Juni, Sonntag

Zeit Temperatur Niederschläge Wind Luftdruck Luftfeuchtigkeit
00:00 +12°C° 0 mm 4 m/S 755 mmHg 90%
01:00 +12°C° 0 mm 4 m/S 755 mmHg 90%
02:00 +12°C° 0 mm 4 m/S 755 mmHg 89%
03:00 +12°C° 0 mm 5 m/S 755 mmHg 89%
04:00 +12°C° 0 mm 5 m/S 755 mmHg 89%
05:00 +12°C° 0 mm 5 m/S 755 mmHg 88%
06:00 +12°C° 0 mm 5 m/S 755 mmHg 88%
07:00 +13°C° 0 mm 5 m/S 755 mmHg 84%
08:00 +14°C° 0 mm 6 m/S 755 mmHg 81%
09:00 +15°C° 0 mm 6 m/S 755 mmHg 77%
10:00 +16°C° 0 mm 6 m/S 755 mmHg 76%
11:00 +17°C° 0 mm 5 m/S 755 mmHg 75%
12:00 +19°C° 0 mm 5 m/S 754 mmHg 73%
13:00 +20°C° 0 mm 5 m/S 754 mmHg 73%
14:00 +20°C° 0 mm 5 m/S 754 mmHg 73%
15:00 +21°C° 0 mm 5 m/S 754 mmHg 72%
16:00 +20°C° 0.1 mm 5 m/S 754 mmHg 76%
17:00 +20°C° 0.1 mm 5 m/S 754 mmHg 80%
18:00 +19°C° 0.1 mm 5 m/S 754 mmHg 83%
19:00 +18°C° 0 mm 4 m/S 754 mmHg 85%
20:00 +17°C° 0 mm 4 m/S 754 mmHg 87%
21:00 +17°C° 0 mm 3 m/S 754 mmHg 89%
22:00 +16°C° 0 mm 3 m/S 754 mmHg 90%
23:00 +16°C° 0 mm 3 m/S 754 mmHg 90%

28 Juni, Montag

Zeit Temperatur Niederschläge Wind Luftdruck Luftfeuchtigkeit
00:00 +16°C° 0 mm 3 m/S 754 mmHg 91%
01:00 +14°C° 0 mm 3 m/S 754 mmHg 91%
02:00 +14°C° 0 mm 3 m/S 754 mmHg 92%
03:00 +14°C° 0 mm 3 m/S 754 mmHg 92%
04:00 +14°C° 0 mm 3 m/S 754 mmHg 92%
05:00 +14°C° 0 mm 3 m/S 754 mmHg 92%
06:00 +14°C° 0 mm 3 m/S 754 mmHg 91%
07:00 +16°C° 0 mm 3 m/S 754 mmHg 87%
08:00 +17°C° 0 mm 3 m/S 754 mmHg 82%
09:00 +19°C° 0 mm 3 m/S 755 mmHg 77%
10:00 +18°C° 0 mm 3 m/S 755 mmHg 78%
11:00 +18°C° 0 mm 3 m/S 755 mmHg 79%
12:00 +18°C° 0 mm 3 m/S 755 mmHg 80%
13:00 +18°C° 0.1 mm 3 m/S 755 mmHg 83%
14:00 +17°C° 0.1 mm 3 m/S 755 mmHg 86%
15:00 +17°C° 0.1 mm 3 m/S 755 mmHg 90%
16:00 +16°C° 0.2 mm 3 m/S 755 mmHg 90%
17:00 +16°C° 0.2 mm 2 m/S 755 mmHg 91%
18:00 +16°C° 0.2 mm 2 m/S 755 mmHg 91%
19:00 +16°C° 0 mm 2 m/S 755 mmHg 92%
20:00 +15°C° 0 mm 2 m/S 755 mmHg 92%
21:00 +15°C° 0 mm 2 m/S 756 mmHg 92%
22:00 +14°C° 0 mm 2 m/S 756 mmHg 92%
23:00 +14°C° 0 mm 2 m/S 756 mmHg 93%

29 Juni, Dienstag

Zeit Temperatur Niederschläge Wind Luftdruck Luftfeuchtigkeit
00:00 +14°C° 0 mm 2 m/S 756 mmHg 93%
01:00 +13°C° 0 mm 2 m/S 756 mmHg 93%
02:00 +13°C° 0 mm 2 m/S 756 mmHg 93%
03:00 +13°C° 0 mm 2 m/S 756 mmHg 94%
04:00 +13°C° 0 mm 2 m/S 756 mmHg 94%
05:00 +14°C° 0 mm 2 m/S 756 mmHg 94%
06:00 +14°C° 0 mm 2 m/S 756 mmHg 94%
07:00 +14°C° 0 mm 3 m/S 756 mmHg 89%
08:00 +16°C° 0 mm 3 m/S 756 mmHg 85%
09:00 +17°C° 0 mm 3 m/S 756 mmHg 80%
10:00 +18°C° 0 mm 3 m/S 756 mmHg 78%
11:00 +19°C° 0 mm 4 m/S 757 mmHg 76%
12:00 +20°C° 0 mm 4 m/S 757 mmHg 74%
13:00 +20°C° 0 mm 4 m/S 757 mmHg 75%
14:00 +20°C° 0 mm 4 m/S 757 mmHg 75%
15:00 +20°C° 0 mm 4 m/S 757 mmHg 76%
16:00 +19°C° 0 mm 4 m/S 757 mmHg 77%
17:00 +19°C° 0 mm 3 m/S 757 mmHg 78%
18:00 +19°C° 0 mm 3 m/S 757 mmHg 80%
19:00 +17°C° 0 mm 2 m/S 757 mmHg 83%
20:00 +15°C° 0 mm 2 m/S 757 mmHg 86%
21:00 +14°C° 0 mm 2 m/S 757 mmHg 89%
22:00 +14°C° 0 mm 2 m/S 757 mmHg 89%
23:00 +13°C° 0 mm 2 m/S 757 mmHg 88%

30 Juni, Mittwoch

Zeit Temperatur Niederschläge Wind Luftdruck Luftfeuchtigkeit
00:00 +13°C° 0 mm 1 m/S 758 mmHg 88%
01:00 +13°C° 0 mm 1 m/S 757 mmHg 89%
02:00 +13°C° 0 mm 1 m/S 757 mmHg 90%
03:00 +13°C° 0 mm 1 m/S 757 mmHg 92%
04:00 +14°C° 0 mm 1 m/S 758 mmHg 91%
05:00 +15°C° 0 mm 1 m/S 758 mmHg 90%
06:00 +15°C° 0 mm 1 m/S 758 mmHg 90%
07:00 +16°C° 0 mm 1 m/S 758 mmHg 87%
08:00 +16°C° 0 mm 0 m/S 758 mmHg 85%
09:00 +17°C° 0 mm 0 m/S 758 mmHg 82%
10:00 +20°C° 0 mm 1 m/S 758 mmHg 81%
11:00 +20°C° 0 mm 1 m/S 758 mmHg 79%
12:00 +20°C° 0 mm 2 m/S 758 mmHg 77%
13:00 +20°C° 0 mm 2 m/S 758 mmHg 78%
14:00 +20°C° 0 mm 2 m/S 758 mmHg 79%
15:00 +19°C° 0 mm 2 m/S 758 mmHg 80%
16:00 +19°C° 0.1 mm 2 m/S 758 mmHg 82%
17:00 +19°C° 0.1 mm 2 m/S 758 mmHg 84%
18:00 +18°C° 0.1 mm 2 m/S 758 mmHg 86%
19:00 +18°C° 0 mm 1 m/S 758 mmHg 88%
20:00 +16°C° 0 mm 1 m/S 758 mmHg 90%
21:00 +15°C° 0 mm 1 m/S 758 mmHg 93%
22:00 +15°C° 0 mm 1 m/S 757 mmHg 93%
23:00 +15°C° 0 mm 1 m/S 757 mmHg 92%
Mehr zeigen

Wir brauchen deine Erlaubnis

Meteoprog und unser Service Anbieter werden persönliche Daten aufbewahren, so wie Cookies, Geräte Bezeichnung oder ähnliche Technologien von deinem Gerät und Prozess, so wie Persönliche Daten Inhalte und Werbungen, genauso wie social Media und den Verkehr zu analysieren.

  • Aufbewahrung und/oder Zugang zu deiner Geräte Informationen.

    Cookies, Geräte Bezeichnung oder andere Informationen, können aufbewahrt oder Zugang zu deinem Gerät erhalten, für den Grund, der oben angegeben wird.

  • Personalisierte Werbung und Inhalte, Messungen, Einblick in das Publikum und Produkt Entwicklung.

    Werbungen und Inhalte können personalisiert werden, basierend auf ein Profil. Mehr Daten können besser personalisierte Werbungen und Inhalte hinzufügen. Werbung und Inhalte können gezeigt und gemessen werden. Einblicke über das Publikum, welche die Werbung gesehen haben und den Inhalt, können abgeleitet werden. So wie Daten können genutzt werden, um es zu verbessern oder die Benutzer Erfahrung zu verbessern das System und die Software.

Wenn du “Ich stimme zu” klickst, erlaubst du uns, die Cookies zu benutzen die Geräte Bezeichnung, den Web oder ähnliche Technologien zu benutzen. Deine Settings, können in deinem Gerät bei deinem Browser geändert werden.

Für den bestimmten Zweck, berechtigten Interessen beruhen darauf, mehr als auf den Inhalt. Du kannst mehr darüber in unseren Privaten und Cookie Politik lesen.